Flag for Grenada Weather past 2 weeks in Saint George's, Grenada

Now
81 °F

Passing clouds.


Feels Like: 87 °F
Forecast: 77 / 82 °F
Wind: 9 mph from Northeast

Location: Point Salines Airport

Current Time: Aug 3, 2015 at 12:49:41 AM

Latest Report: Aug 3, 2015 at 12:00 AM


Visibility: N/A

Pressure: 29.95 "Hg

Humidity: 89%

Dew point: 77 °F

Location of Saint George'sLocation

Historic Weather in Saint George's — Graph

°F

Saint George's temperature yesterday

Maximum temperature yesterday: 86 °F (at 3:00 PM)
Minimum temperature yesterday: 77 °F (at 1:00 AM)
Average temperature yesterday: 80 °F

Past Weeks' High & Low Weather Summary

 TemperatureHumidityPressure
High88 °F (Jul 20, 11:00 AM)100% (Jul 21, 12:00 PM)30.04 "Hg (Jul 21, 12:00 PM)
Low77 °F (Jul 21, 2:00 PM)66% (Jul 19, 12:00 PM)29.86 "Hg (Aug 2, 3:00 PM)
Average82 °F83%29.96 "Hg
* Reported Jul 18 11:00 PM — Aug 2 11:00 PM, Saint George's, Weather by CustomWeather, © 2015

Note: Actual official high and low records may vary slightly from our data, if they occured in-between our weather recording intervals... More about our weather records

Advertising

Saint George's weather history for previous 24 hours

 ConditionsComfort  
Time TempWeatherWind HumidityBarometerVisibility
11:00 PM
Sun, Aug 2
79 °FPassing clouds.14 mph94%29.98 "HgN/A
10:00 PM81 °FPassing clouds.9 mph89%29.92 "HgN/A
9:00 PM81 °FPassing clouds.14 mph89%29.92 "HgN/A
8:00 PM81 °FPassing clouds.12 mph89%29.92 "HgN/A
7:00 PM81 °FPassing clouds.12 mph89%29.89 "HgN/A
6:00 PM82 °FScattered clouds.12 mph89%29.86 "HgN/A
5:00 PM81 °FScattered clouds.9 mph94%29.86 "HgN/A
4:00 PM84 °FPartly sunny.No wind79%29.86 "HgN/A
3:00 PM86 °FScattered clouds.16 mph75%29.86 "HgN/A
2:00 PM84 °FScattered clouds.14 mph79%29.89 "HgN/A
1:00 PM84 °FScattered clouds.6 mph84%29.92 "HgN/A
12:00 PM82 °FScattered clouds.7 mph84%29.92 "HgN/A
10:00 AM82 °FScattered clouds.12 mph89%29.95 "HgN/A
9:00 AM79 °FSprinkles. Scattered clouds.12 mph94%29.95 "Hg4 mi
8:00 AM82 °FBroken clouds.8 mph84%29.92 "HgN/A
7:00 AM81 °FPassing clouds.6 mph84%29.89 "HgN/A
6:00 AM77 °FPassing clouds.6 mph89%29.89 "HgN/A
5:00 AM77 °FPassing clouds.9 mph89%29.89 "HgN/A
4:00 AM77 °FPassing clouds.No wind89%29.89 "HgN/A
3:00 AM77 °FPassing clouds.2 mph89%29.89 "HgN/A
2:00 AM77 °FPassing clouds.2 mph89%29.89 "HgN/A
1:00 AM77 °FPassing clouds.No wind89%29.92 "HgN/A
12:00 AM79 °FPassing clouds.6 mph84%29.92 "HgN/A
Weather by CustomWeather, © 2015

See weather overviewHow to use our weather pages